Weather History for Lewisburg, WV

Change the Weather History Date:

Tuesday, October 30, 2012

  Actual Average Record
Temperature  
Mean Temperature 30 °F 47 °F  
Max Temperature 32 °F 60 °F 75 °F (1996)
Min Temperature 28 °F 33 °F 23 °F (2005)
Degree Days  
Heating Degree Days 35    
Month to date heating degree days  
Since 1 July heating degree days  
Cooling Degree Days 0    
Month to date cooling degree days  
Year to date cooling degree days  
Moisture  
Dew Point 26 °F    
Average Humidity 85    
Maximum Humidity 93    
Minimum Humidity 75    
Precipitation  
Precipitation 0.02 in 0.10 in 0.01 in (2012)
Month to date precipitation 2.48  
Year to date precipitation 33.86  
Snow  
Snow 0.00 in - - ()
Month to date snowfall  
Since 1 July snowfall  
Since 1 September snowfall  
Snow Depth -    
Sea Level Pressure  
Sea Level Pressure 29.35 in    
Wind  
Wind Speed 12 mph (West)    
Max Wind Speed 20 mph    
Max Gust Speed 32 mph    
Visibility 5 miles    
Events Snow    
T = Trace of Precipitation, MM = Missing Value Source: NWS Daily Summary

Daily Weather History Graph

Daily Weather History Graph

Search for Another Location

Airport:

Trip Planner

Search our weather history database for the weather conditions in past years. The results will help you decide how hot, cold, wet, or windy it might be!

Date:

Astronomy

Oct. 30, 2012 Rise Set
Actual Time 7:45 AM EDT 6:24 PM EDT
Civil Twilight 7:18 AM EDT 6:51 PM EDT
Nautical Twilight 6:47 AM EDT 7:22 PM EDT
Astronomical Twilight 6:16 AM EDT 7:53 PM EDT
Moon 6:54 PM EDT (10/30) 8:29 AM EDT (10/30)
Length of Visible Light 11h 33m
Length of Day
10h 38m
Full, 99% of the Moon is Illuminated
Oct 30
Full
Nov 6
Last Quarter
Nov 13
New
Nov 20
First Quarter
Nov 28
Full

Hourly Weather History & Observations

Time (EDT) Temp. Windchill Dew Point Humidity Pressure Visibility Wind Dir Wind Speed Gust Speed Precip Events Conditions
12:15 AM 30.2 °F 20.2 °F 28.4 °F 93% 29.27 in 1.0 mi West 12.7 mph 32.2 mph N/A Snow Light Snow
12:35 AM 30.2 °F 20.2 °F 26.6 °F 86% 29.27 in 1.0 mi WNW 12.7 mph 24.2 mph N/A Snow Snow
12:55 AM 30.2 °F 18.9 °F 26.6 °F 86% 29.26 in 1.0 mi West 16.1 mph 28.8 mph N/A Snow Snow
1:15 AM 30.2 °F 19.3 °F 26.6 °F 86% 29.25 in 0.8 mi West 15.0 mph 24.2 mph N/A Snow Snow
1:35 AM 28.4 °F 16.6 °F 26.6 °F 93% 29.24 in 1.0 mi West 16.1 mph 24.2 mph N/A Snow Snow
1:55 AM 28.4 °F 16.6 °F 26.6 °F 93% 29.23 in 1.0 mi West 16.1 mph 26.5 mph 0.01 in Snow Snow
2:15 AM 28.4 °F 18.5 °F 26.6 °F 93% 29.23 in 1.0 mi WNW 11.5 mph 23.0 mph N/A Snow Snow
2:35 AM 28.4 °F 18.5 °F 26.6 °F 93% 29.23 in 1.0 mi WNW 11.5 mph 24.2 mph N/A Snow Snow
2:55 AM 28.4 °F 17.0 °F 26.6 °F 93% 29.24 in 0.8 mi WNW 15.0 mph 25.3 mph 0.01 in Snow Snow
3:15 AM 28.4 °F 16.2 °F 26.6 °F 93% 29.24 in 1.0 mi WNW 17.3 mph 26.5 mph N/A Snow Light Snow
3:55 AM 28.4 °F 15.4 °F 26.6 °F 93% 29.23 in 2.0 mi West 19.6 mph 27.6 mph N/A Snow Light Snow
4:15 AM 28.4 °F 16.6 °F 24.8 °F 86% 29.23 in 3.0 mi West 16.1 mph 25.3 mph N/A Snow Light Snow
4:35 AM 28.4 °F 17.0 °F 24.8 °F 86% 29.23 in 4.0 mi West 15.0 mph 29.9 mph N/A Snow Light Snow
4:55 AM 28.4 °F 17.0 °F 23.0 °F 80% 29.24 in 2.5 mi West 15.0 mph 31.1 mph N/A Snow Light Snow
5:15 AM 28.4 °F 17.5 °F 24.8 °F 86% 29.24 in 1.8 mi West 13.8 mph 19.6 mph N/A Snow Light Snow
5:35 AM 28.4 °F 18.0 °F 24.8 °F 86% 29.24 in 1.8 mi West 12.7 mph 25.3 mph N/A Snow Light Snow
5:55 AM 28.4 °F 16.2 °F 24.8 °F 86% 29.25 in 1.8 mi West 17.3 mph 23.0 mph N/A Snow Light Snow
6:15 AM 28.4 °F 17.0 °F 24.8 °F 86% 29.25 in 1.8 mi West 15.0 mph 31.1 mph N/A Snow Light Snow
6:35 AM 28.4 °F 18.5 °F 24.8 °F 86% 29.26 in 2.5 mi West 11.5 mph 21.9 mph N/A Snow Light Snow
6:55 AM 28.4 °F 18.5 °F 24.8 °F 86% 29.26 in 3.0 mi West 11.5 mph 17.3 mph N/A Snow Light Snow
7:15 AM 28.4 °F 19.7 °F 23.0 °F 80% 29.26 in 3.0 mi West 9.2 mph 23.0 mph N/A Snow Light Snow
7:35 AM 28.4 °F 17.0 °F 24.8 °F 86% 29.27 in 2.5 mi West 15.0 mph 21.9 mph N/A Snow Light Snow
7:55 AM 28.4 °F 19.7 °F 24.8 °F 86% 29.27 in 3.0 mi West 9.2 mph 20.7 mph N/A Snow Light Snow
8:15 AM 28.4 °F 18.5 °F 23.0 °F 80% 29.28 in 4.0 mi West 11.5 mph 21.9 mph N/A Snow Light Snow
8:35 AM 28.4 °F 17.5 °F 23.0 °F 80% 29.29 in 5.0 mi West 13.8 mph 20.7 mph N/A   Haze
8:55 AM 28.4 °F 18.0 °F 23.0 °F 80% 29.29 in 2.0 mi West 12.7 mph 18.4 mph N/A Snow Light Snow
9:15 AM 28.4 °F 19.1 °F 24.8 °F 86% 29.30 in 1.2 mi West 10.4 mph 17.3 mph N/A Snow Light Snow
9:35 AM 28.4 °F 17.0 °F 24.8 °F 86% 29.29 in 1.2 mi West 15.0 mph 21.9 mph N/A Snow Light Snow
9:55 AM 28.4 °F 17.0 °F 24.8 °F 86% 29.29 in 2.5 mi West 15.0 mph 23.0 mph N/A   Overcast
10:15 AM 28.4 °F 16.2 °F 24.8 °F 86% 29.29 in 3.0 mi West 17.3 mph 26.5 mph N/A Snow Light Snow
10:35 AM 30.2 °F 21.3 °F 24.8 °F 80% 29.30 in 4.0 mi West 10.4 mph 19.6 mph N/A Snow Light Snow
10:55 AM 30.2 °F 20.2 °F 24.8 °F 80% 29.30 in 4.0 mi West 12.7 mph 21.9 mph N/A Snow Light Snow
11:15 AM 30.2 °F 21.9 °F 24.8 °F 80% 29.31 in 4.0 mi WSW 9.2 mph 24.2 mph N/A Snow Light Snow
11:35 AM 30.2 °F 21.3 °F 24.8 °F 80% 29.32 in 5.0 mi West 10.4 mph 19.6 mph N/A Snow Light Snow
11:55 AM 30.2 °F 21.3 °F 24.8 °F 80% 29.33 in 5.0 mi West 10.4 mph 18.4 mph N/A Snow Light Snow
12:15 PM 30.2 °F 23.4 °F 24.8 °F 80% 29.34 in 7.0 mi WSW 6.9 mph 21.9 mph N/A   Overcast
12:35 PM 30.2 °F 22.6 °F 24.8 °F 80% 29.34 in 10.0 mi WSW 8.1 mph 17.3 mph N/A   Overcast
12:55 PM 30.2 °F 21.3 °F 24.8 °F 80% 29.34 in 10.0 mi WSW 10.4 mph 19.6 mph N/A   Overcast
1:15 PM 30.2 °F 21.9 °F 24.8 °F 80% 29.34 in 10.0 mi WSW 9.2 mph 17.3 mph N/A   Overcast
1:35 PM 32.0 °F 24.2 °F 24.8 °F 75% 29.35 in 10.0 mi West 9.2 mph 19.6 mph N/A   Overcast
1:55 PM 32.0 °F 23.0 °F 24.8 °F 75% 29.35 in 10.0 mi West 11.5 mph 18.4 mph N/A   Overcast
2:15 PM 32.0 °F 22.5 °F 24.8 °F 75% 29.35 in 10.0 mi WSW 12.7 mph 24.2 mph N/A   Overcast
2:35 PM 32.0 °F 24.8 °F 24.8 °F 75% 29.36 in 10.0 mi WSW 8.1 mph 20.7 mph N/A   Overcast
2:55 PM 32.0 °F 26.4 °F 26.6 °F 80% 29.36 in 10.0 mi West 5.8 mph - N/A   Overcast
3:15 PM 32.0 °F 24.8 °F 26.6 °F 80% 29.37 in 10.0 mi West 8.1 mph - N/A   Overcast
3:35 PM 32.0 °F 23.6 °F 26.6 °F 80% 29.37 in 10.0 mi West 10.4 mph 16.1 mph N/A   Overcast
3:55 PM 32.0 °F 26.4 °F 26.6 °F 80% 29.38 in 10.0 mi West 5.8 mph 18.4 mph N/A   Overcast
4:15 PM 32.0 °F 23.6 °F 26.6 °F 80% 29.40 in 10.0 mi West 10.4 mph - N/A   Overcast
4:35 PM 32.0 °F 23.6 °F 26.6 °F 80% 29.40 in 10.0 mi West 10.4 mph - N/A   Overcast
4:55 PM 32.0 °F 22.1 °F 26.6 °F 80% 29.41 in 10.0 mi West 13.8 mph 19.6 mph N/A   Overcast
5:15 PM 32.0 °F 23.6 °F 26.6 °F 80% 29.42 in 7.0 mi West 10.4 mph - N/A   Overcast
5:35 PM 32.0 °F 23.6 °F 26.6 °F 80% 29.42 in 7.0 mi West 10.4 mph 16.1 mph N/A   Overcast
5:55 PM 32.0 °F 23.0 °F 26.6 °F 80% 29.43 in 4.0 mi West 11.5 mph 17.3 mph N/A   Haze
6:15 PM 32.0 °F 24.2 °F 28.4 °F 87% 29.44 in 4.0 mi West 9.2 mph - N/A Snow Light Snow
6:35 PM 30.2 °F 21.9 °F 28.4 °F 93% 29.45 in 5.0 mi West 9.2 mph 16.1 mph N/A Snow Light Snow
6:55 PM 30.2 °F 21.9 °F 28.4 °F 93% 29.46 in 4.0 mi West 9.2 mph 16.1 mph N/A Snow Light Snow
7:15 PM 32.0 °F 24.8 °F 28.4 °F 87% 29.47 in 5.0 mi WSW 8.1 mph - N/A Snow Light Snow
7:35 PM 30.2 °F 20.8 °F 28.4 °F 93% 29.48 in 4.0 mi West 11.5 mph 16.1 mph N/A Snow Light Snow
7:55 PM 30.2 °F 23.4 °F 28.4 °F 93% 29.48 in 4.0 mi West 6.9 mph - N/A Snow Light Snow
8:15 PM 30.2 °F 22.6 °F 28.4 °F 93% 29.49 in 5.0 mi West 8.1 mph - N/A Snow Light Snow
8:35 PM 32.0 °F 24.2 °F 28.4 °F 87% 29.49 in 7.0 mi West 9.2 mph - N/A   Overcast
8:55 PM 30.2 °F 21.9 °F 28.4 °F 93% 29.50 in 4.0 mi West 9.2 mph - N/A Snow Light Snow
9:15 PM 32.0 °F 25.6 °F 28.4 °F 87% 29.51 in 5.0 mi West 6.9 mph - N/A Snow Light Snow
9:35 PM 32.0 °F 24.2 °F 28.4 °F 87% 29.52 in 5.0 mi WSW 9.2 mph - N/A Snow Light Snow
9:55 PM 32.0 °F 24.2 °F 28.4 °F 87% 29.53 in 7.0 mi WSW 9.2 mph - N/A Snow Light Snow
10:15 PM 32.0 °F 23.6 °F 28.4 °F 87% 29.53 in 10.0 mi WSW 10.4 mph - N/A   Overcast
10:35 PM 32.0 °F 23.6 °F 28.4 °F 87% 29.53 in 7.0 mi WSW 10.4 mph - N/A Snow Light Snow
10:55 PM 32.0 °F 24.2 °F 28.4 °F 87% 29.53 in 5.0 mi West 9.2 mph 17.3 mph N/A Snow Light Snow
11:15 PM 32.0 °F 25.6 °F 28.4 °F 87% 29.53 in 5.0 mi West 6.9 mph 17.3 mph N/A Snow Light Snow
11:35 PM 32.0 °F 24.8 °F 28.4 °F 87% 29.53 in 7.0 mi WSW 8.1 mph - N/A Snow Light Snow
11:55 PM 32.0 °F 24.2 °F 28.4 °F 87% 29.53 in 5.0 mi West 9.2 mph - N/A Snow Light Snow